Regional Weather Roundup
Issued by NWS Memphis, TN

Home | Current Version | Previous Version | Text Only | Print | Product List | Glossary On
Versions: 1 2 3 4 5 6 7 8 9 10 11 12 13 14 15 16 17 18 19 20 21 22 23 24 25 26 27 28 29 30 31 32 33 34 35 36 37 38 39 40 41 42 43 44 45 46 47 48 49 50
000
ASUS44 KMEG 240010
RWRMEG
MEMPHIS CWA HOURLY WEATHER ROUNDUP
NATIONAL WEATHER SERVICE MEMPHIS TN
700 PM CDT WED APR 23 2014

...WEST TENNESSEE...

CITY           SKY/WX    TMP DP  RH WIND       PRES   REMARKS
MEMPHIS INTL   PTCLDY    75  34  22 E7        29.93S
6HR MIN TEMP:  73; 6HR MAX TEMP:  78;

NWS MEMPHIS      N/A     73 N/A N/A MISG        N/A
JACKSON        CLEAR     72  34  24 NE3       29.95S
6HR MIN TEMP:  70; 6HR MAX TEMP:  76;

LEXINGTON      CLEAR     68  34  28 N6        29.96R
SAVANNAH       CLEAR     72  37  27 CALM      29.95S
DYERSBURG      CLEAR     70  36  28 NE6       29.97S
6HR MIN TEMP:  68; 6HR MAX TEMP:  72;

UNION CITY     CLEAR     64  39  39 NE6       29.97S
PARIS          CLEAR     64  36  35 NE6       29.99S


...EASTERN ARKANSAS...

CITY           SKY/WX    TMP DP  RH WIND       PRES   REMARKS
JONESBORO      CLEAR     71  39  31 E5        29.93F
6HR MIN TEMP:  70; 6HR MAX TEMP:  75;

WEST MEMPHIS   CLEAR     75  35  23 E3        29.92S
6HR MIN TEMP:  73; 6HR MAX TEMP:  78; 6HR PCP: TRACE;

BATESVILLE     CLEAR     72  45  37 E8        29.93S
6HR MIN TEMP:  72; 6HR MAX TEMP:  73;

NEWPORT        CLEAR     71  48  43 E6        29.95S
6HR MIN TEMP:  70; 6HR MAX TEMP:  74;

WALNUT RIDGE   CLEAR     72  36  26 E8        29.95R
6HR MIN TEMP:  70; 6HR MAX TEMP:  73;

BLYTHEVILLE    CLEAR     68  42  38 E9        29.95F
6HR MIN TEMP:  68; 6HR MAX TEMP:  74;

SEARCY         CLEAR     74  46  36 E7        29.93S
6HR MIN TEMP:  72; 6HR MAX TEMP:  77;

STUTTGART      CLEAR     75  43  31 SE6       29.93R
6HR MIN TEMP:  73; 6HR MAX TEMP:  77;

PINE BLUFF     CLEAR     73  47  39 SE8       29.91S
6HR MIN TEMP:  73; 6HR MAX TEMP:  79;

MONTICELLO     CLEAR     76  43  30 E3        29.90F
6HR MIN TEMP:  75; 6HR MAX TEMP:  79;



...NORTH MISSISSIPPI...

CITY           SKY/WX    TMP DP  RH WIND       PRES   REMARKS
TUPELO         CLEAR     74  36  25 E5        29.93R
6HR MIN TEMP:  72; 6HR MAX TEMP:  78;

OXFORD         LGT RAIN  72  39  30 E5        29.94F
OLIVE BRANCH   PTCLDY    73  37  27 CALM      29.93F
TUNICA         CLEAR     73  37  27 E5        29.93S
CLARKSDALE       N/A     75  41  29 CALM      29.92S
CORINTH        CLEAR     72  36  26 NE3       29.94S
GRENADA        CLEAR     72  45  37 E3        29.92S
GREENWOOD      CLEAR     73  47  39 N6        29.91S
6HR MIN TEMP:  73; 6HR MAX TEMP:  80;

COLUMBUS       CLEAR     75  43  31 NW5       29.92S
6HR MIN TEMP:  74; 6HR MAX TEMP:  79;

STARKVILLE     FAIR      72  41  33 CALM      29.92S
GOLDEN TRIANGL CLEAR     75  43  31 NE5       29.94F


...SOUTHEAST MISSOURI...

CITY           SKY/WX    TMP DP  RH WIND       PRES   REMARKS
WEST PLAINS    CLEAR     71  37  28 SE12G21   29.93S
6HR MIN TEMP:  68; 6HR MAX TEMP:  74;

POPLAR BLUFF   CLEAR     68  40  35 E6        29.95S
6HR MIN TEMP:  68; 6HR MAX TEMP:  72;

CAPE GIRARDEAU CLEAR     66  40  38 SE9       29.97F
6HR MIN TEMP:  66; 6HR MAX TEMP:  70;



...NORTHWEST ALABAMA...

CITY           SKY/WX    TMP DP  RH WIND       PRES   REMARKS
MUSCLE SHOALS  CLEAR     71  39  31 E3        29.96S
6HR MIN TEMP:  70; 6HR MAX TEMP:  75;



...MIDDLE TENNESSEE...

CITY           SKY/WX    TMP DP  RH WIND       PRES   REMARKS
NASHVILLE      PTCLDY    64  35  34 N8        29.99S
6HR MIN TEMP:  64; 6HR MAX TEMP:  71;

CLARKSVILLE    CLEAR     65  35  33 NE5       29.99S
6HR MIN TEMP:  63; 6HR MAX TEMP:  69;

DICKSON        CLEAR     64  32  29 NE7       29.99S
COLUMBIA       CLEAR     64  46  52 E5        29.96S
LEWISBURG      CLEAR     65  38  36 NE5       29.97F


...WESTERN KENTUCKY...

CITY           SKY/WX    TMP DP  RH WIND       PRES   REMARKS
PADUCAH        CLEAR     66  36  32 NE8       29.98F
6HR MIN TEMP:  66; 6HR MAX TEMP:  71;

FORT CAMPBELL  CLEAR     64  38  38 NE6       29.99S
6HR MIN TEMP:  63; 6HR MAX TEMP:  68;



...CENTRAL ARKANSAS...

CITY           SKY/WX    TMP DP  RH WIND       PRES   REMARKS
LITTLE ROCK    PTCLDY    75  43  31 SE7       29.90F
6HR MIN TEMP:  74; 6HR MAX TEMP:  78;



SKY/WX REPORTED AS FAIR MEANS FEW OR NO CLOUDS BELOW
12 THOUSAND FEET.




USA.gov is the U.S. government's official web portal to all federal, state and local government web resources and services.